| time (UTC) | temp C | wind direction | speed KPH | gust KPH | rain 1hr cm | rain 24hr cm | rain mn cm | humidity % | barometer mb |
| 20260510214104 | 16 | 254 | 0.0 | 0.0 | 0.00 | 0.00 | 0.00 | 30 | 1017.4 |
| 20260510213605 | 16 | 345 | 0.0 | 0.0 | 0.00 | 0.00 | 0.00 | 30 | 1017.2 |
| 20260510211604 | 17 | 9 | 0.0 | 0.0 | 0.00 | 0.00 | 0.00 | 31 | 1017.1 |
| 20260510210605 | 17 | 257 | 0.0 | 0.0 | 0.00 | 0.00 | 0.00 | 30 | 1017.1 |
| 20260510210104 | 17 | 13 | 0.0 | 0.0 | 0.00 | 0.00 | 0.00 | 28 | 1017.0 |
| 20260510205604 | 17 | 8 | 0.0 | 1.6 | 0.00 | 0.00 | 0.00 | 27 | 1017.0 |
| 20260510205104 | 17 | 16 | 4.8 | 8.0 | 0.00 | 0.00 | 0.00 | 28 | 1017.0 |
| 20260510204604 | 17 | 304 | 1.6 | 4.8 | 0.00 | 0.00 | 0.00 | 30 | 1017.0 |
| 20260510204104 | 17 | 20 | 4.8 | 11.3 | 0.00 | 0.00 | 0.00 | 28 | 1017.1 |
| 20260510203604 | 17 | 22 | 4.8 | 14.5 | 0.00 | 0.00 | 0.00 | 28 | 1017.0 |
| 20260510203105 | 17 | 327 | 4.8 | 9.7 | 0.00 | 0.00 | 0.00 | 30 | 1017.1 |
| 20260510202103 | 17 | 259 | 4.8 | 12.9 | 0.00 | 0.00 | 0.00 | 28 | 1017.1 |
| 20260510201604 | 17 | 279 | 8.0 | 19.3 | 0.00 | 0.00 | 0.00 | 27 | 1017.2 |
| 20260510201104 | 18 | 290 | 8.0 | 20.9 | 0.00 | 0.00 | 0.00 | 27 | 1017.2 |
| 20260510200605 | 18 | 274 | 8.0 | 20.9 | 0.00 | 0.00 | 0.00 | 27 | 1017.2 |
| 20260510195604 | 18 | 280 | 4.8 | 11.3 | 0.00 | 0.00 | 0.00 | 30 | 1017.2 |
| 20260510195103 | 17 | 0 | 3.2 | 9.7 | 0.00 | 0.00 | 0.00 | 28 | 1017.2 |
| 20260510194104 | 17 | 341 | 4.8 | 9.7 | 0.00 | 0.00 | 0.00 | 29 | 1017.3 |
| 20260510193604 | 18 | 262 | 8.0 | 19.3 | 0.00 | 0.00 | 0.00 | 29 | 1017.3 |
| 20260510192104 | 17 | 263 | 4.8 | 14.5 | 0.00 | 0.00 | 0.00 | 29 | 1017.5 |
| 20260510191605 | 17 | 357 | 4.8 | 9.7 | 0.00 | 0.00 | 0.00 | 29 | 1017.4 |
| 20260510191104 | 18 | 291 | 4.8 | 11.3 | 0.00 | 0.03 | 0.00 | 31 | 1017.3 |
| 20260510190104 | 17 | 325 | 8.0 | 19.3 | 0.00 | 0.10 | 0.00 | 29 | 1017.6 |
| 20260510185604 | 17 | 312 | 4.8 | 9.7 | 0.00 | 0.15 | 0.00 | 31 | 1017.3 |
| 20260510185104 | 17 | 337 | 4.8 | 19.3 | 0.00 | 0.15 | 0.00 | 30 | 1017.4 |
| 20260510184604 | 17 | 312 | 4.8 | 19.3 | 0.00 | 0.15 | 0.00 | 31 | 1017.3 |
| 20260510184104 | 17 | 253 | 1.6 | 11.3 | 0.00 | 0.15 | 0.00 | 29 | 1017.3 |
| 20260510183604 | 17 | 263 | 8.0 | 14.5 | 0.00 | 0.15 | 0.00 | 29 | 1017.2 |
| 20260510182605 | 17 | 301 | 4.8 | 9.7 | 0.00 | 0.15 | 0.00 | 31 | 1017.2 |
| 20260510182104 | 17 | 306 | 4.8 | 11.3 | 0.00 | 0.15 | 0.00 | 31 | 1017.2 |
| 20260510181604 | 17 | 284 | 4.8 | 16.1 | 0.00 | 0.15 | 0.00 | 32 | 1017.1 |
| 20260510181104 | 17 | 3 | 6.4 | 11.3 | 0.00 | 0.15 | 0.00 | 29 | 1017.1 |
| 20260510180605 | 17 | 347 | 3.2 | 4.8 | 0.00 | 0.15 | 0.00 | 29 | 1017.1 |
| 20260510180104 | 17 | 293 | 4.8 | 9.7 | 0.00 | 0.15 | 0.00 | 30 | 1017.1 |
| 20260510175604 | 17 | 282 | 8.0 | 22.5 | 0.00 | 0.15 | 0.00 | 30 | 1017.2 |
| 20260510175104 | 17 | 2 | 4.8 | 11.3 | 0.00 | 0.15 | 0.00 | 30 | 1016.9 |
| 20260510174604 | 16 | 348 | 4.8 | 11.3 | 0.00 | 0.15 | 0.00 | 30 | 1017.1 |
| 20260510174104 | 16 | 27 | 3.2 | 9.7 | 0.00 | 0.15 | 0.00 | 29 | 1017.1 |
| 20260510172604 | 16 | 318 | 4.8 | 11.3 | 0.00 | 0.15 | 0.00 | 30 | 1017.1 |
| 20260510172104 | 16 | 312 | 4.8 | 11.3 | 0.00 | 0.15 | 0.00 | 30 | 1017.1 |
| 20260510171604 | 16 | 11 | 4.8 | 11.3 | 0.00 | 0.15 | 0.00 | 29 | 1017.1 |
| 20260510171104 | 16 | 289 | 3.2 | 11.3 | 0.00 | 0.15 | 0.00 | 28 | 1017.1 |
| 20260510170604 | 16 | 276 | 4.8 | 11.3 | 0.00 | 0.15 | 0.00 | 31 | 1017.2 |
| 20260510170104 | 16 | 277 | 4.8 | 11.3 | 0.00 | 0.15 | 0.00 | 30 | 1017.2 |
| 20260510165604 | 16 | 299 | 3.2 | 19.3 | 0.00 | 0.15 | 0.00 | 29 | 1017.2 |
| 20260510165104 | 16 | 272 | 3.2 | 22.5 | 0.00 | 0.15 | 0.00 | 31 | 1017.2 |
| 20260510164604 | 16 | 256 | 3.2 | 19.3 | 0.00 | 0.15 | 0.00 | 32 | 1017.2 |
| 20260510164103 | 16 | 310 | 4.8 | 11.3 | 0.00 | 0.15 | 0.00 | 33 | 1017.2 |
| 20260510163604 | 16 | 323 | 4.8 | 9.7 | 0.00 | 0.15 | 0.00 | 32 | 1017.2 |
| 20260510162604 | 16 | 259 | 8.0 | 19.3 | 0.00 | 0.15 | 0.00 | 32 | 1017.2 |
| 20260510162104 | 16 | 329 | 4.8 | 14.5 | 0.00 | 0.15 | 0.00 | 32 | 1017.2 |
| 20260510161604 | 16 | 20 | 6.4 | 9.7 | 0.00 | 0.15 | 0.00 | 32 | 1017.2 |
| 20260510161104 | 16 | 356 | 4.8 | 19.3 | 0.00 | 0.15 | 0.00 | 33 | 1017.2 |
| 20260510160604 | 16 | 0 | 3.2 | 9.7 | 0.00 | 0.15 | 0.00 | 33 | 1017.1 |
| 20260510160104 | 16 | 5 | 3.2 | 14.5 | 0.00 | 0.15 | 0.00 | 34 | 1017.0 |
| 20260510155604 | 16 | 325 | 4.8 | 8.0 | 0.00 | 0.15 | 0.00 | 34 | 1017.1 |
| 20260510155104 | 16 | 334 | 3.2 | 8.0 | 0.00 | 0.15 | 0.00 | 35 | 1016.9 |
| 20260510154604 | 16 | 7 | 3.2 | 8.0 | 0.00 | 0.15 | 0.00 | 34 | 1016.8 |
| 20260510154104 | 16 | 343 | 1.6 | 8.0 | 0.00 | 0.15 | 0.00 | 38 | 1016.7 |
| 20260510153604 | 15 | 244 | 3.2 | 8.0 | 0.00 | 0.15 | 0.00 | 36 | 1016.7 |
| 20260510153103 | 15 | 335 | 1.6 | 9.7 | 0.00 | 0.15 | 0.00 | 37 | 1016.7 |
| 20260510152604 | 15 | 338 | 6.4 | 11.3 | 0.00 | 0.15 | 0.00 | 36 | 1016.7 |
| 20260510151604 | 15 | 344 | 3.2 | 11.3 | 0.00 | 0.15 | 0.00 | 37 | 1016.6 |
| 20260510151104 | 15 | 30 | 6.4 | 14.5 | 0.00 | 0.15 | 0.00 | 35 | 1016.6 |
| 20260510150603 | 15 | 3 | 3.2 | 11.3 | 0.00 | 0.15 | 0.00 | 37 | 1016.6 |
| 20260510145604 | 14 | 347 | 4.8 | 9.7 | 0.00 | 0.15 | 0.00 | 36 | 1016.6 |
| 20260510145103 | 14 | 268 | 4.8 | 9.7 | 0.00 | 0.15 | 0.00 | 39 | 1016.5 |
| 20260510144604 | 14 | 257 | 4.8 | 11.3 | 0.00 | 0.15 | 0.00 | 37 | 1016.4 |
| 20260510144104 | 14 | 18 | 3.2 | 14.5 | 0.00 | 0.15 | 0.00 | 39 | 1016.4 |
| 20260510143104 | 14 | 264 | 3.2 | 9.7 | 0.00 | 0.15 | 0.00 | 38 | 1016.4 |
| 20260510142604 | 14 | 6 | 4.8 | 8.0 | 0.00 | 0.15 | 0.00 | 38 | 1016.3 |
| 20260510142104 | 13 | 342 | 3.2 | 4.8 | 0.00 | 0.15 | 0.00 | 39 | 1016.2 |
| 20260510141604 | 13 | 269 | 1.6 | 4.8 | 0.00 | 0.15 | 0.00 | 42 | 1016.2 |
| 20260510141104 | 13 | 280 | 1.6 | 4.8 | 0.00 | 0.15 | 0.00 | 42 | 1016.2 |
| 20260510140104 | 13 | 252 | 3.2 | 4.8 | 0.00 | 0.15 | 0.00 | 42 | 1016.1 |
| 20260510135104 | 13 | 310 | 1.6 | 4.8 | 0.00 | 0.15 | 0.00 | 45 | 1016.1 |
| 20260510134604 | 13 | 295 | 3.2 | 4.8 | 0.00 | 0.15 | 0.00 | 45 | 1016.1 |
| 20260510134104 | 12 | 240 | 4.8 | 9.7 | 0.00 | 0.15 | 0.00 | 44 | 1016.1 |
| 20260510133604 | 12 | 318 | 1.6 | 4.8 | 0.00 | 0.15 | 0.00 | 46 | 1016.1 |
| 20260510133104 | 12 | 276 | 1.6 | 4.8 | 0.00 | 0.15 | 0.00 | 46 | 1016.2 |
| 20260510132604 | 12 | 269 | 3.2 | 4.8 | 0.00 | 0.15 | 0.00 | 45 | 1016.1 |
| 20260510132104 | 12 | 13 | 1.6 | 4.8 | 0.00 | 0.15 | 0.00 | 46 | 1016.1 |
| 20260510131604 | 12 | 15 | 1.6 | 4.8 | 0.00 | 0.15 | 0.00 | 48 | 1016.1 |
| 20260510131104 | 12 | 15 | 1.6 | 3.2 | 0.00 | 0.15 | 0.00 | 50 | 1016.0 |
| 20260510130606 | 11 | 16 | 1.6 | 4.8 | 0.00 | 0.15 | 0.00 | 50 | 1016.0 |
| 20260510130104 | 11 | 11 | 1.6 | 4.8 | 0.00 | 0.15 | 0.00 | 52 | 1015.9 |
| 20260510125604 | 11 | 308 | 1.6 | 4.8 | 0.00 | 0.15 | 0.00 | 54 | 1015.7 |
| 20260510125104 | 11 | 307 | 1.6 | 4.8 | 0.00 | 0.15 | 0.00 | 56 | 1015.7 |
| 20260510124603 | 11 | 307 | 3.2 | 4.8 | 0.00 | 0.15 | 0.00 | 58 | 1015.6 |
| 20260510124104 | 10 | 284 | 1.6 | 3.2 | 0.00 | 0.15 | 0.00 | 60 | 1015.6 |
| 20260510123603 | 10 | 284 | 1.6 | 4.8 | 0.00 | 0.15 | 0.00 | 62 | 1015.5 |
| 20260510123104 | 10 | 280 | 3.2 | 4.8 | 0.00 | 0.15 | 0.00 | 65 | 1015.5 |
| 20260510122604 | 9 | 338 | 0.0 | 4.8 | 0.00 | 0.15 | 0.00 | 68 | 1015.5 |
| 20260510122103 | 8 | 22 | 0.0 | 3.2 | 0.00 | 0.15 | 0.00 | 71 | 1015.4 |
| 20260510121603 | 8 | 22 | 1.6 | 3.2 | 0.00 | 0.15 | 0.00 | 72 | 1015.4 |
| 20260510121104 | 8 | 22 | 1.6 | 4.8 | 0.00 | 0.15 | 0.00 | 74 | 1015.4 |
| 20260510120603 | 7 | 24 | 1.6 | 4.8 | 0.00 | 0.15 | 0.00 | 75 | 1015.4 |
| 20260510120104 | 7 | 17 | 3.2 | 4.8 | 0.00 | 0.15 | 0.00 | 77 | 1015.4 |
| 20260510115603 | 6 | 350 | 1.6 | 4.8 | 0.00 | 0.15 | 0.00 | 78 | 1015.4 |
| 20260510114604 | 6 | 350 | 1.6 | 3.2 | 0.00 | 0.15 | 0.00 | 77 | 1015.0 |
| 20260510114104 | 6 | 11 | 0.0 | 1.6 | 0.00 | 0.15 | 0.00 | 76 | 1015.0 |
| 20260510113604 | 6 | 11 | 1.6 | 3.2 | 0.00 | 0.15 | 0.00 | 75 | 1015.0 |
| 20260510112604 | 6 | 11 | 0.0 | 0.0 | 0.00 | 0.15 | 0.00 | 73 | 1014.7 |
| 20260510112103 | 6 | 11 | 0.0 | 0.0 | 0.00 | 0.15 | 0.00 | 72 | 1014.5 |
| 20260510111604 | 6 | 11 | 0.0 | 0.0 | 0.00 | 0.15 | 0.00 | 72 | 1014.5 |
| 20260510111104 | 6 | 11 | 0.0 | 0.0 | 0.00 | 0.15 | 0.00 | 71 | 1014.4 |
| 20260510110603 | 6 | 11 | 0.0 | 0.0 | 0.00 | 0.15 | 0.00 | 71 | 1014.4 |
| 20260510110104 | 6 | 11 | 0.0 | 0.0 | 0.00 | 0.15 | 0.00 | 71 | 1014.3 |
| 20260510105603 | 6 | 11 | 0.0 | 0.0 | 0.00 | 0.15 | 0.00 | 71 | 1014.2 |
| 20260510105104 | 6 | 11 | 0.0 | 0.0 | 0.00 | 0.15 | 0.00 | 70 | 1014.1 |
| 20260510104103 | 6 | 11 | 0.0 | 0.0 | 0.00 | 0.15 | 0.00 | 70 | 1013.9 |
| 20260510103603 | 6 | 11 | 0.0 | 0.0 | 0.00 | 0.15 | 0.00 | 69 | 1013.9 |
| 20260510103104 | 6 | 11 | 0.0 | 0.0 | 0.00 | 0.15 | 0.00 | 69 | 1013.9 |
| 20260510102604 | 6 | 11 | 0.0 | 0.0 | 0.00 | 0.15 | 0.00 | 69 | 1013.7 |
| 20260510102104 | 6 | 11 | 0.0 | 0.0 | 0.00 | 0.15 | 0.00 | 69 | 1013.6 |
| 20260510101104 | 7 | 11 | 0.0 | 0.0 | 0.00 | 0.15 | 0.00 | 69 | 1013.6 |
| 20260510100604 | 7 | 11 | 0.0 | 0.0 | 0.00 | 0.15 | 0.00 | 68 | 1013.5 |
| 20260510095104 | 7 | 11 | 0.0 | 0.0 | 0.00 | 0.15 | 0.00 | 67 | 1013.5 |
| 20260510094604 | 7 | 11 | 0.0 | 0.0 | 0.00 | 0.15 | 0.00 | 67 | 1013.5 |
| 20260510094103 | 7 | 11 | 0.0 | 0.0 | 0.00 | 0.15 | 0.00 | 67 | 1013.4 |
| 20260510093603 | 7 | 11 | 0.0 | 0.0 | 0.00 | 0.15 | 0.00 | 67 | 1013.4 |
| 20260510093104 | 7 | 11 | 0.0 | 1.6 | 0.00 | 0.15 | 0.00 | 67 | 1013.4 |
| 20260510092604 | 7 | 11 | 0.0 | 1.6 | 0.00 | 0.15 | 0.00 | 66 | 1013.3 |
| 20260510092104 | 8 | 11 | 0.0 | 0.0 | 0.00 | 0.15 | 0.00 | 66 | 1013.3 |
| 20260510091604 | 8 | 11 | 0.0 | 0.0 | 0.00 | 0.15 | 0.00 | 65 | 1013.2 |
| 20260510091104 | 8 | 11 | 0.0 | 0.0 | 0.00 | 0.15 | 0.00 | 65 | 1013.1 |
| 20260510085605 | 8 | 11 | 0.0 | 0.0 | 0.00 | 0.15 | 0.00 | 65 | 1012.8 |
| 20260510085104 | 8 | 11 | 0.0 | 0.0 | 0.00 | 0.15 | 0.00 | 65 | 1012.7 |
| 20260510084103 | 8 | 11 | 0.0 | 0.0 | 0.00 | 0.15 | 0.00 | 65 | 1012.3 |
| 20260510083604 | 8 | 11 | 0.0 | 0.0 | 0.00 | 0.15 | 0.00 | 65 | 1012.3 |
| 20260510083103 | 9 | 11 | 0.0 | 0.0 | 0.00 | 0.15 | 0.00 | 65 | 1012.1 |
| 20260510082603 | 9 | 11 | 0.0 | 0.0 | 0.00 | 0.15 | 0.00 | 64 | 1011.9 |
| 20260510082104 | 9 | 11 | 0.0 | 3.2 | 0.00 | 0.15 | 0.00 | 64 | 1011.8 |
| 20260510081604 | 9 | 11 | 0.0 | 3.2 | 0.00 | 0.15 | 0.00 | 64 | 1011.7 |
| 20260510081104 | 9 | 11 | 1.6 | 3.2 | 0.00 | 0.15 | 0.00 | 64 | 1011.5 |
| 20260510080604 | 9 | 11 | 1.6 | 3.2 | 0.00 | 0.15 | 0.00 | 64 | 1011.3 |
| 20260510080104 | 9 | 12 | 1.6 | 3.2 | 0.00 | 0.15 | 0.00 | 64 | 1011.2 |
| 20260510075603 | 10 | 12 | 1.6 | 3.2 | 0.00 | 0.15 | 0.00 | 64 | 1011.1 |
| 20260510075104 | 10 | 12 | 0.0 | 1.6 | 0.00 | 0.15 | 0.00 | 64 | 1010.9 |
| 20260510074603 | 10 | 12 | 1.6 | 1.6 | 0.00 | 0.15 | 0.00 | 64 | 1010.7 |
| 20260510074104 | 10 | 12 | 0.0 | 1.6 | 0.00 | 0.15 | 0.00 | 64 | 1010.6 |
| 20260510073604 | 10 | 12 | 1.6 | 3.2 | 0.00 | 0.15 | 0.00 | 64 | 1010.4 |
| 20260510072604 | 10 | 11 | 1.6 | 4.8 | 0.00 | 0.15 | 0.00 | 64 | 1010.1 |
| 20260510072103 | 10 | 21 | 1.6 | 4.8 | 0.00 | 0.15 | 0.00 | 65 | 1010.1 |
| 20260510071604 | 10 | 21 | 1.6 | 4.8 | 0.00 | 0.15 | 0.00 | 65 | 1010.0 |
| 20260510071103 | 10 | 22 | 1.6 | 3.2 | 0.00 | 0.15 | 0.00 | 65 | 1010.0 |
| 20260510070603 | 10 | 22 | 0.0 | 1.6 | 0.00 | 0.15 | 0.00 | 65 | 1010.0 |
| 20260510070104 | 10 | 22 | 0.0 | 1.6 | 0.00 | 0.15 | 0.00 | 65 | 1009.9 |
| 20260510065604 | 10 | 22 | 0.0 | 1.6 | 0.00 | 0.15 | 0.00 | 65 | 1009.7 |
| 20260510065103 | 10 | 22 | 0.0 | 1.6 | 0.00 | 0.15 | 0.00 | 65 | 1009.7 |
| 20260510064604 | 10 | 22 | 1.6 | 3.2 | 0.00 | 0.15 | 0.00 | 64 | 1009.7 |
| 20260510064103 | 11 | 22 | 1.6 | 4.8 | 0.00 | 0.15 | 0.00 | 64 | 1009.6 |
| 20260510063603 | 11 | 22 | 1.6 | 3.2 | 0.00 | 0.15 | 0.00 | 63 | 1009.6 |
| 20260510063104 | 11 | 22 | 0.0 | 0.0 | 0.00 | 0.15 | 0.00 | 62 | 1009.6 |
| 20260510062604 | 11 | 22 | 0.0 | 1.6 | 0.00 | 0.15 | 0.00 | 62 | 1009.7 |
| 20260510062104 | 11 | 22 | 1.6 | 1.6 | 0.00 | 0.15 | 0.00 | 61 | 1009.7 |
| 20260510061604 | 11 | 22 | 0.0 | 1.6 | 0.00 | 0.15 | 0.00 | 61 | 1009.6 |
| 20260510060604 | 11 | 22 | 1.6 | 1.6 | 0.00 | 0.15 | 0.00 | 60 | 1009.6 |
| 20260510055605 | 12 | 22 | 0.0 | 0.0 | 0.00 | 0.15 | 0.00 | 60 | 1009.4 |
| 20260510055106 | 12 | 22 | 0.0 | 0.0 | 0.00 | 0.15 | 0.00 | 60 | 1009.4 |
| 20260510054105 | 12 | 22 | 0.0 | 0.0 | 0.00 | 0.15 | 0.00 | 59 | 1009.3 |
| 20260510053105 | 12 | 22 | 1.6 | 3.2 | 0.00 | 0.15 | 0.00 | 59 | 1009.1 |
| 20260510052605 | 12 | 22 | 1.6 | 3.2 | 0.00 | 0.15 | 0.00 | 58 | 1009.1 |
| 20260510052106 | 12 | 22 | 1.6 | 4.8 | 0.00 | 0.15 | 0.00 | 57 | 1009.0 |
| 20260510051606 | 13 | 11 | 0.0 | 1.6 | 0.00 | 0.15 | 0.00 | 56 | 1009.0 |
| 20260510051105 | 13 | 11 | 0.0 | 3.2 | 0.00 | 0.15 | 0.00 | 55 | 1008.7 |
| 20260510050106 | 13 | 11 | 0.0 | 0.0 | 0.00 | 0.15 | 0.00 | 53 | 1008.5 |
| 20260510045605 | 13 | 11 | 0.0 | 0.0 | 0.00 | 0.15 | 0.00 | 53 | 1008.5 |
| 20260510044606 | 14 | 11 | 0.0 | 0.0 | 0.00 | 0.15 | 0.00 | 52 | 1008.2 |
| 20260510044105 | 14 | 11 | 0.0 | 0.0 | 0.00 | 0.15 | 0.00 | 51 | 1008.1 |
| 20260510043605 | 14 | 11 | 0.0 | 0.0 | 0.00 | 0.15 | 0.00 | 51 | 1008.0 |
| 20260510042605 | 15 | 20 | 1.6 | 4.8 | 0.00 | 0.15 | 0.00 | 49 | 1007.9 |
| 20260510042105 | 15 | 20 | 0.0 | 4.8 | 0.00 | 0.15 | 0.00 | 49 | 1007.9 |
| 20260510041605 | 15 | 20 | 1.6 | 3.2 | 0.00 | 0.15 | 0.00 | 49 | 1007.9 |
| 20260510041106 | 15 | 20 | 1.6 | 3.2 | 0.00 | 0.15 | 0.00 | 48 | 1007.8 |
| 20260510040605 | 15 | 20 | 3.2 | 4.8 | 0.00 | 0.15 | 0.00 | 48 | 1007.8 |
| 20260510040106 | 15 | 319 | 1.6 | 4.8 | 0.00 | 0.15 | 0.00 | 47 | 1007.8 |
| 20260510034605 | 16 | 8 | 3.2 | 8.0 | 0.00 | 0.15 | 0.15 | 46 | 1007.5 |
| 20260510034106 | 16 | 348 | 1.6 | 4.8 | 0.00 | 0.15 | 0.15 | 46 | 1007.4 |
| 20260510033606 | 16 | 0 | 1.6 | 4.8 | 0.00 | 0.15 | 0.15 | 45 | 1007.4 |
| 20260510033105 | 16 | 345 | 3.2 | 4.8 | 0.00 | 0.15 | 0.15 | 45 | 1007.3 |
| 20260510032605 | 16 | 16 | 4.8 | 8.0 | 0.00 | 0.15 | 0.15 | 44 | 1007.2 |
| 20260510032105 | 16 | 344 | 4.8 | 12.9 | 0.00 | 0.15 | 0.15 | 44 | 1007.1 |
| 20260510031605 | 16 | 358 | 6.4 | 14.5 | 0.00 | 0.15 | 0.15 | 44 | 1007.0 |
| 20260510031105 | 16 | 323 | 4.8 | 11.3 | 0.00 | 0.15 | 0.15 | 44 | 1006.9 |
| 20260510030605 | 16 | 316 | 6.4 | 11.3 | 0.00 | 0.15 | 0.15 | 44 | 1006.8 |
| 20260510025605 | 16 | 331 | 4.8 | 9.7 | 0.00 | 0.15 | 0.15 | 47 | 1006.4 |
| 20260510025106 | 16 | 345 | 3.2 | 12.9 | 0.00 | 0.15 | 0.15 | 48 | 1006.3 |
| 20260510024106 | 16 | 344 | 4.8 | 11.3 | 0.00 | 0.15 | 0.15 | 49 | 1006.0 |
| 20260510023605 | 16 | 351 | 4.8 | 14.5 | 0.00 | 0.15 | 0.15 | 51 | 1005.9 |
| 20260510023106 | 16 | 305 | 3.2 | 8.0 | 0.00 | 0.15 | 0.15 | 51 | 1005.8 |
| 20260510022605 | 16 | 345 | 3.2 | 8.0 | 0.00 | 0.15 | 0.15 | 51 | 1005.6 |
| 20260510021605 | 16 | 345 | 4.8 | 8.0 | 0.00 | 0.15 | 0.15 | 52 | 1005.3 |
| 20260510021106 | 16 | 338 | 3.2 | 14.5 | 0.00 | 0.15 | 0.15 | 53 | 1005.2 |
| 20260510020605 | 16 | 11 | 1.6 | 3.2 | 0.00 | 0.15 | 0.15 | 52 | 1005.2 |
| 20260510020106 | 16 | 11 | 0.0 | 0.0 | 0.00 | 0.15 | 0.15 | 50 | 1004.8 |
| 20260510015606 | 17 | 11 | 0.0 | 0.0 | 0.00 | 0.15 | 0.15 | 49 | 1004.7 |
| 20260510015105 | 17 | 11 | 0.0 | 0.0 | 0.00 | 0.15 | 0.15 | 48 | 1004.6 |
| 20260510014605 | 17 | 11 | 0.0 | 0.0 | 0.00 | 0.15 | 0.15 | 47 | 1004.3 |
| 20260510014106 | 17 | 11 | 0.0 | 1.6 | 0.00 | 0.15 | 0.15 | 46 | 1004.2 |
| 20260510013606 | 17 | 11 | 0.0 | 1.6 | 0.00 | 0.15 | 0.15 | 45 | 1004.1 |
| 20260510013105 | 18 | 11 | 0.0 | 0.0 | 0.00 | 0.15 | 0.15 | 44 | 1003.8 |
| 20260510012605 | 18 | 11 | 0.0 | 0.0 | 0.00 | 0.15 | 0.15 | 44 | 1003.7 |
| 20260510012105 | 18 | 11 | 0.0 | 0.0 | 0.00 | 0.15 | 0.15 | 43 | 1003.7 |
| 20260510011605 | 18 | 11 | 0.0 | 0.0 | 0.00 | 0.15 | 0.15 | 43 | 1003.6 |
| 20260510011105 | 18 | 11 | 0.0 | 0.0 | 0.00 | 0.15 | 0.15 | 42 | 1003.5 |
| 20260510010605 | 19 | 11 | 0.0 | 3.2 | 0.00 | 0.15 | 0.15 | 42 | 1003.4 |
| 20260510010106 | 19 | 11 | 1.6 | 3.2 | 0.00 | 0.15 | 0.15 | 41 | 1003.3 |
| 20260510005605 | 19 | 11 | 0.0 | 3.2 | 0.00 | 0.15 | 0.15 | 40 | 1003.2 |
| 20260510005106 | 19 | 11 | 0.0 | 3.2 | 0.00 | 0.15 | 0.15 | 40 | 1003.2 |
| 20260510004605 | 19 | 268 | 1.6 | 4.8 | 0.00 | 0.15 | 0.15 | 39 | 1003.2 |
| 20260510004105 | 20 | 265 | 3.2 | 4.8 | 0.00 | 0.15 | 0.15 | 39 | 1003.2 |
| 20260510003105 | 20 | 282 | 3.2 | 8.0 | 0.00 | 0.15 | 0.15 | 38 | 1003.1 |
| 20260510002605 | 20 | 261 | 1.6 | 4.8 | 0.00 | 0.15 | 0.15 | 37 | 1003.1 |
| 20260510002105 | 20 | 262 | 3.2 | 8.0 | 0.00 | 0.15 | 0.15 | 37 | 1003.1 |
| 20260510001605 | 20 | 256 | 4.8 | 11.3 | 0.00 | 0.15 | 0.15 | 36 | 1003.0 |
| 20260510001105 | 20 | 260 | 4.8 | 9.7 | 0.00 | 0.15 | 0.15 | 36 | 1002.9 |
| 20260510000605 | 20 | 275 | 4.8 | 8.0 | 0.00 | 0.15 | 0.15 | 35 | 1002.8 |
| 20260509235605 | 20 | 239 | 3.2 | 8.0 | 0.00 | 0.15 | 0.15 | 35 | 1002.7 |
| 20260509235105 | 20 | 269 | 4.8 | 11.3 | 0.00 | 0.15 | 0.15 | 34 | 1002.7 |
| 20260509234605 | 21 | 268 | 4.8 | 16.1 | 0.00 | 0.15 | 0.15 | 34 | 1002.7 |
| 20260509234105 | 21 | 292 | 4.8 | 9.7 | 0.00 | 0.15 | 0.15 | 33 | 1002.6 |
| 20260509233605 | 21 | 289 | 4.8 | 14.5 | 0.00 | 0.15 | 0.15 | 33 | 1002.6 |
| 20260509233105 | 21 | 280 | 4.8 | 11.3 | 0.00 | 0.15 | 0.15 | 34 | 1002.6 |
| 20260509232605 | 21 | 193 | 3.2 | 14.5 | 0.00 | 0.15 | 0.15 | 34 | 1002.6 |
| 20260509232105 | 21 | 284 | 4.8 | 20.9 | 0.00 | 0.15 | 0.15 | 33 | 1002.6 |
| 20260509231606 | 21 | 276 | 4.8 | 14.5 | 0.00 | 0.15 | 0.15 | 33 | 1002.6 |
| 20260509231106 | 21 | 303 | 8.0 | 20.9 | 0.00 | 0.15 | 0.15 | 32 | 1002.6 |
| 20260509230606 | 21 | 282 | 11.3 | 22.5 | 0.00 | 0.15 | 0.15 | 32 | 1002.6 |
| 20260509225605 | 21 | 325 | 11.3 | 27.4 | 0.00 | 0.15 | 0.15 | 32 | 1002.4 |
| 20260509225105 | 21 | 277 | 8.0 | 29.0 | 0.00 | 0.15 | 0.15 | 33 | 1002.5 |
| 20260509224605 | 21 | 252 | 17.7 | 35.4 | 0.00 | 0.15 | 0.15 | 32 | 1002.5 |
| 20260509224105 | 22 | 271 | 14.5 | 32.2 | 0.00 | 0.15 | 0.15 | 32 | 1002.1 |
| 20260509223605 | 22 | 278 | 14.5 | 29.0 | 0.00 | 0.15 | 0.15 | 33 | 1002.1 |
| 20260509223105 | 22 | 277 | 14.5 | 41.8 | 0.00 | 0.15 | 0.15 | 32 | 1002.0 |
| 20260509222605 | 22 | 290 | 19.3 | 32.2 | 0.00 | 0.15 | 0.15 | 33 | 1002.0 |
| 20260509221605 | 22 | 254 | 14.5 | 29.0 | 0.00 | 0.15 | 0.15 | 37 | 1001.5 |
| 20260509221105 | 22 | 264 | 16.1 | 27.4 | 0.00 | 0.15 | 0.15 | 40 | 1001.5 |
| 20260509220605 | 21 | 247 | 11.3 | 25.7 | 0.00 | 0.15 | 0.15 | 44 | 1001.4 |
| 20260509220105 | 21 | 246 | 9.7 | 25.7 | 0.00 | 0.15 | 0.15 | 40 | 1001.2 |
| 20260509215605 | 22 | 254 | 20.9 | 37.0 | 0.00 | 0.15 | 0.15 | 41 | 1001.5 |
| 20260509215105 | 22 | 267 | 9.7 | 19.3 | 0.00 | 0.15 | 0.15 | 43 | 1001.1 |
| 20260509214605 | 22 | 265 | 9.7 | 25.7 | 0.00 | 0.15 | 0.15 | 44 | 1001.0 |